| time (UTC) | temp F | wind direction | speed MPH | gust MPH | rain 1hr in | rain 24hr in | rain mn in | humidity % | barometer mb |
| 20260503034930 | 33 | 294 | 2.0 | 3.0 | 0.00 | 0.05 | 0.05 | 82 | 1012.2 |
| 20260503034427 | 33 | 294 | 1.0 | 2.0 | 0.00 | 0.05 | 0.05 | 82 | 1012.4 |
| 20260503033924 | 33 | 293 | 0.0 | 1.0 | 0.00 | 0.05 | 0.05 | 82 | 1012.2 |
| 20260503033421 | 34 | 293 | 0.0 | 0.0 | 0.00 | 0.05 | 0.05 | 81 | 1012.1 |
| 20260503032919 | 34 | 293 | 0.0 | 0.0 | 0.00 | 0.05 | 0.05 | 81 | 1012.2 |
| 20260503032417 | 34 | 293 | 2.0 | 2.0 | 0.00 | 0.05 | 0.05 | 81 | 1012.5 |
| 20260503031915 | 34 | 293 | 0.0 | 0.0 | 0.00 | 0.05 | 0.05 | 81 | 1012.5 |
| 20260503031412 | 34 | 293 | 0.0 | 1.0 | 0.00 | 0.05 | 0.05 | 80 | 1012.4 |
| 20260503030909 | 35 | 293 | 0.0 | 2.0 | 0.00 | 0.05 | 0.05 | 79 | 1012.4 |
| 20260503030405 | 35 | 293 | 0.0 | 0.0 | 0.00 | 0.05 | 0.05 | 79 | 1012.5 |
| 20260503025901 | 35 | 293 | 0.0 | 0.0 | 0.00 | 0.05 | 0.05 | 79 | 1012.6 |
| 20260503025359 | 35 | 293 | 0.0 | 0.0 | 0.00 | 0.05 | 0.05 | 78 | 1012.5 |
| 20260503024856 | 35 | 293 | 0.0 | 0.0 | 0.00 | 0.05 | 0.05 | 78 | 1012.6 |
| 20260503024353 | 35 | 293 | 1.0 | 1.0 | 0.00 | 0.05 | 0.05 | 78 | 1012.5 |
| 20260503023850 | 36 | 293 | 0.0 | 0.0 | 0.00 | 0.05 | 0.05 | 77 | 1012.5 |
| 20260503023347 | 36 | 293 | 0.0 | 0.0 | 0.00 | 0.05 | 0.05 | 77 | 1012.5 |
| 20260503022843 | 36 | 293 | 0.0 | 0.0 | 0.00 | 0.05 | 0.05 | 77 | 1012.6 |
| 20260503022338 | 36 | 293 | 0.0 | 0.0 | 0.00 | 0.05 | 0.05 | 76 | 1012.6 |
| 20260503021835 | 36 | 293 | 0.0 | 0.0 | 0.00 | 0.05 | 0.05 | 76 | 1012.5 |
| 20260503021331 | 36 | 293 | 0.0 | 0.0 | 0.00 | 0.05 | 0.05 | 76 | 1012.8 |
| 20260503020828 | 37 | 293 | 0.0 | 0.0 | 0.00 | 0.05 | 0.05 | 75 | 1012.5 |
| 20260503020326 | 37 | 293 | 0.0 | 0.0 | 0.00 | 0.05 | 0.05 | 74 | 1012.6 |
| 20260503015822 | 37 | 293 | 0.0 | 1.0 | 0.00 | 0.05 | 0.05 | 74 | 1012.7 |
| 20260503015319 | 37 | 293 | 0.0 | 1.0 | 0.00 | 0.05 | 0.05 | 74 | 1012.6 |
| 20260503014815 | 37 | 293 | 0.0 | 0.0 | 0.00 | 0.05 | 0.05 | 74 | 1012.6 |
| 20260503014313 | 37 | 293 | 0.0 | 0.0 | 0.00 | 0.05 | 0.05 | 73 | 1012.6 |
| 20260503013810 | 37 | 293 | 0.0 | 0.0 | 0.00 | 0.05 | 0.05 | 73 | 1012.5 |
| 20260503013308 | 37 | 293 | 0.0 | 0.0 | 0.00 | 0.05 | 0.05 | 72 | 1012.7 |
| 20260503012804 | 37 | 293 | 0.0 | 0.0 | 0.00 | 0.05 | 0.05 | 72 | 1012.5 |
| 20260503012305 | 37 | 293 | 0.0 | 1.0 | 0.00 | 0.05 | 0.05 | 72 | 1012.4 |
| 20260503011759 | 37 | 293 | 0.0 | 0.0 | 0.00 | 0.05 | 0.05 | 72 | 1012.6 |
| 20260503011255 | 38 | 293 | 0.0 | 0.0 | 0.00 | 0.05 | 0.05 | 71 | 1012.2 |
| 20260503010752 | 38 | 293 | 0.0 | 0.0 | 0.00 | 0.05 | 0.05 | 71 | 1012.5 |
| 20260503010249 | 38 | 293 | 0.0 | 0.0 | 0.00 | 0.05 | 0.05 | 70 | 1012.4 |
| 20260503005746 | 38 | 293 | 0.0 | 0.0 | 0.00 | 0.05 | 0.05 | 70 | 1012.2 |
| 20260503005243 | 38 | 293 | 1.0 | 2.0 | 0.00 | 0.05 | 0.05 | 70 | 1012.1 |
| 20260503004739 | 38 | 293 | 0.0 | 2.0 | 0.00 | 0.05 | 0.05 | 70 | 1011.9 |
| 20260503004238 | 38 | 293 | 1.0 | 2.0 | 0.00 | 0.05 | 0.05 | 70 | 1011.9 |
| 20260503003734 | 39 | 293 | 0.0 | 1.0 | 0.00 | 0.05 | 0.05 | 70 | 1012.1 |
| 20260503003232 | 39 | 293 | 0.0 | 1.0 | 0.00 | 0.05 | 0.05 | 69 | 1012.0 |
| 20260503002728 | 39 | 293 | 1.0 | 1.0 | 0.00 | 0.05 | 0.05 | 68 | 1012.0 |
| 20260503002225 | 39 | 293 | 1.0 | 2.0 | 0.00 | 0.05 | 0.05 | 68 | 1011.9 |
| 20260503001721 | 40 | 293 | 1.0 | 2.0 | 0.00 | 0.05 | 0.05 | 67 | 1011.8 |
| 20260503001218 | 40 | 293 | 1.0 | 1.0 | 0.00 | 0.05 | 0.05 | 66 | 1011.8 |
| 20260503000716 | 40 | 294 | 0.0 | 1.0 | 0.00 | 0.05 | 0.05 | 66 | 1011.9 |
| 20260503000213 | 40 | 300 | 2.0 | 3.0 | 0.00 | 0.05 | 0.05 | 65 | 1012.0 |
| 20260502235710 | 40 | 313 | 1.0 | 7.0 | 0.00 | 0.05 | 0.05 | 64 | 1011.8 |
| 20260502235208 | 41 | 314 | 2.0 | 3.0 | 0.00 | 0.05 | 0.05 | 64 | 1011.6 |
| 20260502234703 | 41 | 323 | 0.0 | 2.0 | 0.00 | 0.05 | 0.05 | 65 | 1011.7 |
| 20260502234201 | 41 | 319 | 2.0 | 3.0 | 0.00 | 0.05 | 0.05 | 64 | 1011.9 |
| 20260502233656 | 41 | 307 | 2.0 | 5.0 | 0.00 | 0.05 | 0.05 | 63 | 1011.9 |
| 20260502233154 | 41 | 307 | 0.0 | 1.0 | 0.00 | 0.05 | 0.05 | 64 | 1011.7 |
| 20260502232649 | 42 | 321 | 1.0 | 6.0 | 0.00 | 0.05 | 0.05 | 63 | 1011.7 |
| 20260502232147 | 42 | 298 | 1.0 | 5.0 | 0.00 | 0.05 | 0.05 | 63 | 1011.5 |
| 20260502231643 | 42 | 313 | 1.0 | 2.0 | 0.00 | 0.05 | 0.05 | 63 | 1011.5 |
| 20260502231141 | 42 | 314 | 1.0 | 2.0 | 0.00 | 0.05 | 0.05 | 62 | 1011.5 |
| 20260502230640 | 42 | 283 | 2.0 | 5.0 | 0.00 | 0.05 | 0.05 | 63 | 1011.5 |
| 20260502230138 | 42 | 288 | 5.0 | 7.0 | 0.00 | 0.05 | 0.05 | 62 | 1011.5 |
| 20260502225633 | 42 | 309 | 3.0 | 3.0 | 0.00 | 0.05 | 0.05 | 62 | 1011.7 |
| 20260502225131 | 42 | 298 | 1.0 | 1.0 | 0.00 | 0.05 | 0.05 | 62 | 1011.6 |
| 20260502224626 | 42 | 284 | 1.0 | 2.0 | 0.00 | 0.05 | 0.05 | 62 | 1011.7 |
| 20260502224123 | 43 | 337 | 4.0 | 6.0 | 0.00 | 0.05 | 0.05 | 61 | 1011.5 |
| 20260502223621 | 43 | 293 | 0.0 | 7.0 | 0.00 | 0.05 | 0.05 | 60 | 1011.4 |
| 20260502223120 | 43 | 292 | 1.0 | 5.0 | 0.00 | 0.05 | 0.05 | 59 | 1011.5 |
| 20260502222617 | 43 | 337 | 5.0 | 7.0 | 0.00 | 0.05 | 0.05 | 58 | 1011.3 |
| 20260502222113 | 44 | 293 | 1.0 | 3.0 | 0.00 | 0.05 | 0.05 | 58 | 1011.3 |
| 20260502221608 | 44 | 293 | 1.0 | 6.0 | 0.00 | 0.05 | 0.05 | 57 | 1011.2 |
| 20260502221106 | 44 | 262 | 0.0 | 3.0 | 0.00 | 0.05 | 0.05 | 58 | 1011.3 |
| 20260502220602 | 44 | 264 | 0.0 | 3.0 | 0.00 | 0.05 | 0.05 | 57 | 1011.4 |
| 20260502220058 | 45 | 277 | 1.0 | 2.0 | 0.00 | 0.05 | 0.05 | 57 | 1011.3 |
| 20260502215555 | 45 | 295 | 2.0 | 7.0 | 0.00 | 0.05 | 0.05 | 56 | 1011.4 |
| 20260502215052 | 45 | 281 | 1.0 | 3.0 | 0.00 | 0.05 | 0.05 | 56 | 1011.3 |
| 20260502214549 | 45 | 284 | 2.0 | 3.0 | 0.00 | 0.05 | 0.05 | 56 | 1011.3 |
| 20260502214047 | 45 | 281 | 1.0 | 6.0 | 0.00 | 0.05 | 0.05 | 55 | 1011.3 |
| 20260502213543 | 45 | 309 | 2.0 | 6.0 | 0.00 | 0.05 | 0.05 | 55 | 1011.2 |
| 20260502213041 | 45 | 288 | 3.0 | 6.0 | 0.00 | 0.05 | 0.05 | 55 | 1011.4 |
| 20260502212540 | 45 | 349 | 3.0 | 6.0 | 0.00 | 0.05 | 0.05 | 54 | 1011.5 |
| 20260502212037 | 45 | 261 | 3.0 | 7.0 | 0.00 | 0.05 | 0.05 | 53 | 1011.4 |
| 20260502211532 | 46 | 320 | 5.0 | 8.0 | 0.00 | 0.05 | 0.05 | 53 | 1011.4 |
| 20260502211030 | 47 | 242 | 5.0 | 9.0 | 0.00 | 0.05 | 0.05 | 52 | 1011.2 |
| 20260502210527 | 47 | 236 | 4.0 | 10.0 | 0.00 | 0.05 | 0.05 | 52 | 1011.3 |
| 20260502210024 | 48 | 296 | 7.0 | 16.0 | 0.00 | 0.05 | 0.05 | 52 | 1011.4 |
| 20260502205521 | 47 | 269 | 5.0 | 13.0 | 0.00 | 0.05 | 0.05 | 52 | 1011.1 |
| 20260502205018 | 47 | 304 | 3.0 | 8.0 | 0.00 | 0.05 | 0.05 | 56 | 1011.0 |
| 20260502204515 | 46 | 259 | 2.0 | 11.0 | 0.00 | 0.05 | 0.05 | 53 | 1011.2 |
| 20260502204013 | 46 | 354 | 3.0 | 7.0 | 0.00 | 0.05 | 0.05 | 53 | 1011.2 |
| 20260502203509 | 46 | 312 | 4.0 | 6.0 | 0.00 | 0.05 | 0.05 | 51 | 1011.1 |
| 20260502203006 | 46 | 263 | 0.0 | 6.0 | 0.00 | 0.05 | 0.05 | 54 | 1011.3 |
| 20260502202502 | 47 | 254 | 4.0 | 7.0 | 0.00 | 0.05 | 0.05 | 53 | 1011.3 |
| 20260502202001 | 46 | 300 | 5.0 | 9.0 | 0.00 | 0.05 | 0.05 | 55 | 1011.4 |
| 20260502201456 | 45 | 307 | 1.0 | 6.0 | 0.00 | 0.05 | 0.05 | 51 | 1011.3 |
| 20260502200953 | 45 | 313 | 3.0 | 7.0 | 0.00 | 0.05 | 0.05 | 56 | 1011.6 |
| 20260502200449 | 45 | 313 | 5.0 | 7.0 | 0.00 | 0.05 | 0.05 | 56 | 1011.8 |
| 20260502195947 | 46 | 284 | 2.0 | 6.0 | 0.00 | 0.05 | 0.05 | 55 | 1011.7 |
| 20260502195444 | 45 | 313 | 5.0 | 7.0 | 0.00 | 0.05 | 0.05 | 56 | 1011.6 |
| 20260502194940 | 46 | 302 | 3.0 | 6.0 | 0.00 | 0.05 | 0.05 | 55 | 1011.5 |
| 20260502194437 | 46 | 290 | 2.0 | 2.0 | 0.00 | 0.05 | 0.05 | 56 | 1011.8 |
| 20260502193933 | 46 | 273 | 1.0 | 7.0 | 0.00 | 0.05 | 0.05 | 56 | 1011.6 |
| 20260502193430 | 46 | 289 | 1.0 | 6.0 | 0.00 | 0.05 | 0.05 | 56 | 1011.7 |
| 20260502192925 | 46 | 211 | 2.0 | 6.0 | 0.00 | 0.05 | 0.05 | 57 | 1011.8 |
| 20260502192423 | 45 | 277 | 5.0 | 11.0 | 0.00 | 0.05 | 0.05 | 53 | 1011.9 |
| 20260502191920 | 45 | 322 | 5.0 | 8.0 | 0.00 | 0.05 | 0.05 | 59 | 1011.8 |
| 20260502191418 | 45 | 279 | 3.0 | 10.0 | 0.00 | 0.05 | 0.05 | 58 | 1012.1 |
| 20260502190915 | 45 | 261 | 4.0 | 5.0 | 0.00 | 0.05 | 0.05 | 55 | 1012.1 |
| 20260502190412 | 46 | 326 | 4.0 | 8.0 | 0.00 | 0.05 | 0.05 | 55 | 1012.1 |
| 20260502185908 | 46 | 279 | 2.0 | 5.0 | 0.00 | 0.05 | 0.05 | 57 | 1012.2 |
| 20260502185403 | 46 | 295 | 2.0 | 5.0 | 0.00 | 0.05 | 0.05 | 56 | 1012.1 |
| 20260502184901 | 46 | 310 | 2.0 | 9.0 | 0.00 | 0.05 | 0.05 | 56 | 1011.9 |
| 20260502184356 | 46 | 318 | 4.0 | 8.0 | 0.00 | 0.05 | 0.05 | 57 | 1012.0 |
| 20260502183853 | 46 | 268 | 1.0 | 6.0 | 0.00 | 0.05 | 0.05 | 57 | 1011.8 |
| 20260502183349 | 46 | 286 | 4.0 | 6.0 | 0.00 | 0.05 | 0.05 | 58 | 1011.9 |
| 20260502182844 | 45 | 270 | 0.0 | 2.0 | 0.00 | 0.05 | 0.05 | 60 | 1011.9 |
| 20260502182340 | 45 | 251 | 4.0 | 6.0 | 0.00 | 0.05 | 0.05 | 56 | 1011.9 |
| 20260502181837 | 46 | 326 | 4.0 | 8.0 | 0.00 | 0.05 | 0.05 | 56 | 1011.8 |
| 20260502181336 | 46 | 333 | 2.0 | 7.0 | 0.00 | 0.05 | 0.05 | 58 | 1011.8 |
| 20260502180833 | 46 | 322 | 4.0 | 7.0 | 0.00 | 0.05 | 0.05 | 57 | 1012.1 |
| 20260502180330 | 46 | 281 | 1.0 | 2.0 | 0.00 | 0.05 | 0.05 | 58 | 1011.9 |
| 20260502170249 | 46 | 284 | 1.0 | 5.0 | 0.00 | 0.05 | 0.05 | 63 | 1012.1 |
| 20260502164237 | 47 | 275 | 3.0 | 9.0 | 0.00 | 0.05 | 0.05 | 64 | 1012.1 |
| 20260502163732 | 46 | 258 | 6.0 | 7.0 | 0.00 | 0.05 | 0.05 | 64 | 1012.1 |
| 20260502163229 | 44 | 278 | 2.0 | 9.0 | 0.00 | 0.05 | 0.05 | 67 | 1012.1 |
| 20260502162726 | 44 | 324 | 9.0 | 13.0 | 0.00 | 0.05 | 0.05 | 65 | 1012.1 |
| 20260502162223 | 44 | 319 | 3.0 | 15.0 | 0.00 | 0.05 | 0.05 | 63 | 1012.0 |
| 20260502161720 | 44 | 321 | 5.0 | 11.0 | 0.00 | 0.05 | 0.05 | 66 | 1012.1 |
| 20260502161216 | 45 | 326 | 7.0 | 11.0 | 0.00 | 0.05 | 0.05 | 71 | 1011.7 |
| 20260502160715 | 45 | 273 | 5.0 | 10.0 | 0.00 | 0.05 | 0.05 | 68 | 1012.0 |
| 20260502160213 | 45 | 319 | 3.0 | 8.0 | 0.00 | 0.05 | 0.05 | 72 | 1012.1 |
| 20260502152127 | 44 | 314 | 3.0 | 8.0 | 0.00 | 0.05 | 0.05 | 77 | 1011.9 |
| 20260502151624 | 44 | 273 | 0.0 | 13.0 | 0.00 | 0.05 | 0.05 | 78 | 1012.0 |
| 20260502151121 | 44 | 260 | 3.0 | 9.0 | 0.00 | 0.05 | 0.05 | 81 | 1012.1 |
| 20260502150618 | 43 | 288 | 2.0 | 3.0 | 0.00 | 0.05 | 0.05 | 86 | 1012.1 |
| 20260502150114 | 43 | 297 | 2.0 | 3.0 | 0.00 | 0.05 | 0.05 | 83 | 1012.0 |
| 20260502130503 | 39 | 316 | 2.0 | 5.0 | 0.00 | 0.05 | 0.05 | 99 | 1012.4 |
| 20260502123446 | 38 | 280 | 0.0 | 2.0 | 0.00 | 0.05 | 0.05 | 99 | 1012.5 |
| 20260502122943 | 38 | 284 | 2.0 | 3.0 | 0.00 | 0.05 | 0.05 | 99 | 1012.4 |
| 20260502122439 | 38 | 286 | 2.0 | 2.0 | 0.00 | 0.05 | 0.05 | 99 | 1012.5 |
| 20260502121937 | 38 | 284 | 2.0 | 3.0 | 0.00 | 0.05 | 0.05 | 99 | 1012.5 |
| 20260502121434 | 38 | 296 | 0.0 | 2.0 | 0.07 | 0.05 | 0.05 | 99 | 1012.4 |
| 20260502120932 | 38 | 25 | 7.0 | 9.0 | 0.07 | 0.05 | 0.05 | 99 | 1012.2 |
| 20260502120428 | 38 | 278 | 1.0 | 5.0 | 0.00 | 0.04 | 0.04 | 99 | 1012.4 |
| 20260502115925 | 38 | 302 | 2.0 | 3.0 | 0.00 | 0.04 | 0.04 | 99 | 1012.5 |
| 20260502115422 | 38 | 309 | 0.0 | 5.0 | 0.00 | 0.04 | 0.04 | 99 | 1012.5 |
| 20260502114918 | 37 | 302 | 2.0 | 3.0 | 0.00 | 0.04 | 0.04 | 99 | 1012.4 |
| 20260502114415 | 37 | 311 | 1.0 | 2.0 | 0.00 | 0.04 | 0.04 | 99 | 1012.2 |
| 20260502113912 | 37 | 311 | 0.0 | 2.0 | 0.00 | 0.04 | 0.04 | 99 | 1012.4 |
| 20260502113410 | 37 | 312 | 1.0 | 1.0 | 0.00 | 0.04 | 0.04 | 99 | 1012.2 |
| 20260502112909 | 37 | 312 | 0.0 | 1.0 | 0.00 | 0.04 | 0.04 | 99 | 1012.1 |
| 20260502112405 | 37 | 313 | 1.0 | 2.0 | 0.00 | 0.04 | 0.04 | 99 | 1012.1 |
| 20260502111903 | 36 | 313 | 0.0 | 2.0 | 0.00 | 0.04 | 0.04 | 99 | 1012.0 |
| 20260502111400 | 36 | 314 | 1.0 | 2.0 | 0.00 | 0.04 | 0.04 | 99 | 1011.9 |
| 20260502110857 | 36 | 303 | 2.0 | 2.0 | 0.00 | 0.04 | 0.04 | 99 | 1012.1 |
| 20260502110355 | 36 | 313 | 1.0 | 5.0 | 0.00 | 0.04 | 0.04 | 99 | 1012.4 |
| 20260502105852 | 36 | 313 | 3.0 | 3.0 | 0.00 | 0.04 | 0.04 | 99 | 1012.0 |
| 20260502105349 | 36 | 317 | 2.0 | 5.0 | 0.00 | 0.04 | 0.04 | 99 | 1012.2 |
| 20260502104847 | 36 | 302 | 1.0 | 2.0 | 0.00 | 0.04 | 0.04 | 99 | 1012.0 |
| 20260502104344 | 36 | 303 | 2.0 | 5.0 | 0.00 | 0.04 | 0.04 | 99 | 1011.7 |
| 20260502103841 | 36 | 311 | 2.0 | 3.0 | 0.00 | 0.04 | 0.04 | 99 | 1011.8 |
| 20260502103339 | 36 | 305 | 0.0 | 3.0 | 0.00 | 0.04 | 0.04 | 99 | 1012.1 |
| 20260502102836 | 36 | 306 | 1.0 | 7.0 | 0.00 | 0.04 | 0.04 | 99 | 1012.0 |
| 20260502102332 | 36 | 296 | 0.0 | 3.0 | 0.00 | 0.04 | 0.04 | 99 | 1011.8 |
| 20260502101830 | 36 | 296 | 0.0 | 2.0 | 0.00 | 0.04 | 0.04 | 99 | 1011.7 |
| 20260502101328 | 36 | 298 | 3.0 | 7.0 | 0.00 | 0.04 | 0.04 | 99 | 1011.6 |
| 20260502100826 | 36 | 307 | 1.0 | 2.0 | 0.00 | 0.04 | 0.04 | 99 | 1011.8 |
| 20260502100325 | 36 | 312 | 3.0 | 5.0 | 0.00 | 0.04 | 0.04 | 99 | 1011.6 |
| 20260502091258 | 37 | 306 | 1.0 | 1.0 | 0.00 | 0.04 | 0.04 | 99 | 1011.3 |
| 20260502090756 | 37 | 300 | 1.0 | 3.0 | 0.00 | 0.04 | 0.04 | 99 | 1011.3 |
| 20260502090252 | 37 | 300 | 2.0 | 3.0 | 0.00 | 0.04 | 0.04 | 99 | 1011.2 |
| 20260502071153 | 40 | 263 | 0.0 | 1.0 | 0.05 | 0.02 | 0.02 | 99 | 1010.5 |
| 20260502070651 | 40 | 263 | 0.0 | 1.0 | 0.05 | 0.02 | 0.02 | 99 | 1010.5 |
| 20260502070149 | 40 | 268 | 3.0 | 3.0 | 0.00 | 0.01 | 0.01 | 99 | 1010.5 |
| 20260502065647 | 40 | 262 | 1.0 | 3.0 | 0.00 | 0.01 | 0.01 | 99 | 1010.8 |
| 20260502065144 | 40 | 245 | 1.0 | 3.0 | 0.00 | 0.01 | 0.01 | 99 | 1010.7 |
| 20260502064643 | 40 | 282 | 0.0 | 6.0 | 0.00 | 0.01 | 0.01 | 99 | 1010.4 |
| 20260502064140 | 40 | 274 | 1.0 | 2.0 | 0.00 | 0.01 | 0.01 | 99 | 1010.8 |
| 20260502063637 | 40 | 274 | 0.0 | 1.0 | 0.00 | 0.01 | 0.01 | 99 | 1010.8 |
| 20260502063135 | 40 | 274 | 0.0 | 1.0 | 0.07 | 0.01 | 0.01 | 99 | 1010.8 |
| 20260502062632 | 40 | 273 | 1.0 | 2.0 | 0.00 | 0.00 | 0.00 | 99 | 1010.8 |
| 20260502062130 | 40 | 274 | 1.0 | 1.0 | 0.00 | 0.00 | 0.00 | 99 | 1011.0 |
| 20260502061628 | 40 | 274 | 0.0 | 1.0 | 0.00 | 0.00 | 0.00 | 99 | 1010.9 |
| 20260502061125 | 40 | 284 | 0.0 | 3.0 | 0.00 | 0.00 | 0.00 | 99 | 1010.9 |
| 20260502060625 | 40 | 275 | 3.0 | 5.0 | 0.00 | 0.00 | 0.00 | 99 | 1011.0 |
| 20260502060122 | 40 | 262 | 0.0 | 5.0 | 0.00 | 0.00 | 0.00 | 99 | 1011.0 |
| 20260502055620 | 40 | 262 | 0.0 | 3.0 | 0.00 | 0.00 | 0.00 | 99 | 1011.0 |
| 20260502055118 | 40 | 245 | 1.0 | 2.0 | 0.00 | 0.00 | 0.00 | 99 | 1010.9 |
| 20260502054617 | 40 | 244 | 1.0 | 2.0 | 0.00 | 0.00 | 0.00 | 99 | 1010.9 |
| 20260502054113 | 40 | 244 | 0.0 | 0.0 | 0.00 | 0.00 | 0.00 | 99 | 1011.2 |
| 20260502053610 | 40 | 244 | 0.0 | 1.0 | 0.00 | 0.00 | 0.00 | 99 | 1011.1 |
| 20260502053108 | 40 | 244 | 0.0 | 0.0 | 0.00 | 0.00 | 0.00 | 99 | 1011.1 |
| 20260502052606 | 40 | 244 | 0.0 | 0.0 | 0.00 | 0.00 | 0.00 | 99 | 1011.0 |
| 20260502052104 | 40 | 244 | 0.0 | 0.0 | 0.00 | 0.00 | 0.00 | 99 | 1010.5 |
| 20260502051602 | 40 | 244 | 0.0 | 0.0 | 0.00 | 0.00 | 0.00 | 99 | 1010.9 |
| 20260502051059 | 40 | 244 | 0.0 | 0.0 | 0.00 | 0.00 | 0.00 | 99 | 1011.1 |
| 20260502050555 | 40 | 244 | 0.0 | 0.0 | 0.00 | 0.00 | 0.00 | 99 | 1011.0 |
| 20260502050052 | 40 | 244 | 0.0 | 0.0 | 0.00 | 0.00 | 0.00 | 99 | 1011.1 |
| 20260502045549 | 40 | 244 | 0.0 | 0.0 | 0.00 | 0.00 | 0.00 | 99 | 1011.2 |
| 20260502045046 | 40 | 244 | 0.0 | 1.0 | 0.00 | 0.00 | 0.00 | 99 | 1011.1 |
| 20260502044542 | 40 | 244 | 0.0 | 0.0 | 0.00 | 0.00 | 0.00 | 99 | 1011.2 |
| 20260502044039 | 40 | 244 | 0.0 | 0.0 | 0.00 | 0.00 | 0.00 | 99 | 1011.3 |
| 20260502043537 | 40 | 244 | 0.0 | 0.0 | 0.00 | 0.00 | 0.00 | 99 | 1011.3 |
| 20260502043033 | 40 | 244 | 0.0 | 0.0 | 0.00 | 0.00 | 0.00 | 99 | 1011.1 |
| 20260502042528 | 40 | 244 | 0.0 | 0.0 | 0.00 | 0.00 | 0.00 | 99 | 1011.2 |
| 20260502042026 | 40 | 244 | 0.0 | 0.0 | 0.00 | 0.00 | 0.00 | 99 | 1011.4 |
| 20260502041523 | 40 | 244 | 0.0 | 0.0 | 0.00 | 0.00 | 0.00 | 99 | 1011.0 |
| 20260502041020 | 40 | 244 | 0.0 | 2.0 | 0.00 | 0.00 | 0.00 | 99 | 1011.1 |
| 20260502040517 | 40 | 244 | 0.0 | 2.0 | 0.00 | 0.00 | 0.00 | 99 | 1011.2 |
| 20260502040014 | 40 | 244 | 1.0 | 1.0 | 0.00 | 0.15 | 0.15 | 99 | 1011.0 |
| 20260502035509 | 40 | 244 | 1.0 | 2.0 | 0.00 | 0.15 | 0.15 | 99 | 1011.1 |